Weather History for KELO - March, 2013

Change the Weather History Date:

Saturday, March 30, 2013

  Actual Average Record
Temperature  
Mean Temperature 42 °F -  
Max Temperature 51 °F 38 °F 53 °F (2014)
Min Temperature 33 °F 19 °F 6 °F (2009)
Degree Days  
Heating Degree Days 23    
Moisture  
Dew Point 26 °F    
Average Humidity 62    
Maximum Humidity 100    
Minimum Humidity 26    
Precipitation  
Precipitation 0.10 in - - ()
Sea Level Pressure  
Sea Level Pressure 29.81 in    
Wind  
Wind Speed 5 mph (West)    
Max Wind Speed 14 mph    
Max Gust Speed 24 mph    
Visibility 8 miles    
Events Fog , Rain    
Averages and records for this station are not official NWS values.
T = Trace of Precipitation, MM = Missing Value Source: NWS Daily Summary

Daily Weather History Graph

Daily Weather History Graph

Search for Another Location

Airport or City:

Trip Planner

Search our weather history database for the weather conditions in past years. The results will help you decide how hot, cold, wet, or windy it might be!

Date:

Astronomy

Mar. 30, 2013 Rise Set
Actual Time 6:49 AM CDT 7:34 PM CDT
Civil Twilight 6:18 AM CDT 8:06 PM CDT
Nautical Twilight 5:40 AM CDT 8:43 PM CDT
Astronomical Twilight 5:01 AM CDT 9:22 PM CDT
Moon No Moon Rise 8:28 AM CDT (3/30)
Length of Visible Light 13h 48m
Length of Day
12h 45m
Waning Gibbous, 86% of the Moon is Illuminated
Mar 30
Waning Gibbous
Apr 2
Last Quarter
Apr 10
New
Apr 18
First Quarter
Apr 25
Full

Hourly Weather History & Observations

Time (CDT) Temp. Windchill Dew Point Humidity Pressure Visibility Wind Dir Wind Speed Gust Speed Precip Events Conditions
12:13 AM 37.4 °F 32.8 °F 30.2 °F 75% 30.00 in 10.0 mi SSW 5.8 mph - N/A   Overcast
12:33 AM 39.2 °F 35.0 °F 30.2 °F 70% 29.99 in 10.0 mi SSW 5.8 mph - N/A   Overcast
12:53 AM 39.2 °F 35.0 °F 28.4 °F 65% 29.98 in 10.0 mi South 5.8 mph - N/A   Overcast
1:12 AM 37.4 °F 33.8 °F 28.4 °F 70% 29.98 in 10.0 mi SSW 4.6 mph - N/A   Overcast
1:33 AM 39.2 °F 35.0 °F 28.4 °F 65% 29.97 in 10.0 mi SSW 5.8 mph - N/A   Scattered Clouds
1:53 AM 39.2 °F 35.9 °F 30.2 °F 70% 29.96 in 10.0 mi SSW 4.6 mph - N/A   Scattered Clouds
2:12 AM 39.2 °F 35.9 °F 30.2 °F 70% 29.95 in 10.0 mi South 4.6 mph - N/A   Mostly Cloudy
2:33 AM 37.4 °F 32.8 °F 30.2 °F 75% 29.95 in 10.0 mi SSW 5.8 mph - N/A   Overcast
2:53 AM 37.4 °F 32.8 °F 30.2 °F 75% 29.94 in 10.0 mi SSW 5.8 mph - N/A   Overcast
3:12 AM 37.4 °F 33.8 °F 30.2 °F 75% 29.93 in 10.0 mi SSW 4.6 mph - N/A   Light Drizzle
3:33 AM 37.4 °F 32.8 °F 30.2 °F 75% 29.92 in 10.0 mi SSW 5.8 mph - N/A Rain Light Rain
3:52 AM 37.4 °F 33.8 °F 32.0 °F 81% 29.91 in 10.0 mi SSW 4.6 mph - N/A Rain Light Rain
4:13 AM 35.6 °F 31.7 °F 33.8 °F 93% 29.90 in 7.0 mi SSW 4.6 mph - N/A   Drizzle
4:33 AM 35.6 °F 30.7 °F 33.8 °F 93% 29.90 in 7.0 mi SSW 5.8 mph - N/A   Drizzle
4:52 AM 35.6 °F 31.7 °F 33.8 °F 93% 29.89 in 7.0 mi SSW 4.6 mph - N/A   Clear
5:13 AM 35.6 °F 30.7 °F 33.8 °F 93% 29.89 in 4.0 mi SSW 5.8 mph - N/A Rain Light Rain
5:33 AM 35.6 °F - 35.6 °F 100% 29.89 in 3.0 mi Calm Calm - 0.01 in Rain Light Rain
5:52 AM 35.6 °F - 35.6 °F 100% 29.87 in 2.5 mi Calm Calm - 0.02 in Rain Light Rain
6:13 AM 35.6 °F - 35.6 °F 100% 29.87 in 1.8 mi Calm Calm - 0.02 in Rain Rain
6:33 AM 35.6 °F - 35.6 °F 100% 29.85 in 2.0 mi Calm Calm - 0.03 in Rain Light Rain
6:52 AM 35.6 °F - 35.6 °F 100% 29.85 in 1.5 mi Calm Calm - 0.05 in Rain Light Rain
7:13 AM 35.6 °F - 35.6 °F 100% 29.85 in 1.2 mi Calm Calm - 0.01 in Rain Light Rain
7:33 AM 35.6 °F - 35.6 °F 100% 29.84 in 0.2 mi Calm Calm - 0.02 in Rain Rain
7:52 AM 35.6 °F - 35.6 °F 100% 29.83 in 0.2 mi Calm Calm - 0.03 in Rain Light Rain
8:13 AM 35.6 °F - 35.6 °F 100% 29.83 in 0.2 mi Calm Calm - N/A Rain Light Rain
8:33 AM 35.6 °F - 35.6 °F 100% 29.83 in 0.2 mi Calm Calm - N/A Fog Fog
8:52 AM 35.6 °F - 35.6 °F 100% 29.83 in 1.2 mi Calm Calm - N/A   Overcast
9:13 AM 37.4 °F - 35.6 °F 93% 29.82 in 1.0 mi Calm Calm - N/A   Overcast
9:33 AM 37.4 °F - 37.4 °F 100% 29.81 in 1.8 mi Calm Calm - N/A   Overcast
9:53 AM 37.4 °F 32.8 °F 37.4 °F 100% 29.81 in 2.5 mi West 5.8 mph - N/A   Overcast
10:13 AM 39.2 °F 37.0 °F 35.6 °F 87% 29.80 in 3.0 mi West 3.5 mph - N/A   Overcast
10:32 AM 39.2 °F 35.0 °F 35.6 °F 87% 29.80 in 4.0 mi West 5.8 mph - N/A   Overcast
10:53 AM 41.0 °F 39.0 °F 35.6 °F 81% 29.79 in 5.0 mi WSW 3.5 mph - N/A   Haze
11:13 AM 41.0 °F 39.0 °F 35.6 °F 81% 29.79 in 5.0 mi West 3.5 mph - N/A   Haze
11:32 AM 42.8 °F 41.1 °F 35.6 °F 76% 29.78 in 7.0 mi WSW 3.5 mph - N/A   Scattered Clouds
11:53 AM 44.6 °F - 35.6 °F 71% 29.78 in 7.0 mi Calm Calm - N/A   Scattered Clouds
12:13 PM 44.6 °F - 35.6 °F 71% 29.78 in 7.0 mi Calm Calm - N/A   Scattered Clouds
12:32 PM 46.4 °F 44.3 °F 35.6 °F 66% 29.77 in 10.0 mi WSW 4.6 mph - N/A   Scattered Clouds
12:53 PM 48.2 °F - 32.0 °F 54% 29.76 in 10.0 mi WSW 6.9 mph - N/A   Scattered Clouds
1:13 PM 48.2 °F - 28.4 °F 46% 29.75 in 10.0 mi West 8.1 mph - N/A   Clear
1:32 PM 51.8 °F - 19.4 °F 28% 29.75 in 10.0 mi NW 9.2 mph - N/A   Clear
1:53 PM 50.0 °F - 19.4 °F 30% 29.75 in 10.0 mi NW 10.4 mph 17.3 mph N/A   Clear
2:13 PM 51.8 °F - 17.6 °F 26% 29.74 in 10.0 mi WNW 12.7 mph 18.4 mph N/A   Clear
2:33 PM 51.8 °F - 17.6 °F 26% 29.74 in 10.0 mi NW 9.2 mph - N/A   Clear
2:53 PM 51.8 °F - 17.6 °F 26% 29.74 in 10.0 mi WNW 9.2 mph - N/A   Clear
3:12 PM 51.8 °F - 17.6 °F 26% 29.74 in 10.0 mi WNW 11.5 mph 19.6 mph N/A   Clear
3:33 PM 51.8 °F - 17.6 °F 26% 29.73 in 10.0 mi NW 10.4 mph 20.7 mph N/A   Clear
3:53 PM 51.8 °F - 17.6 °F 26% 29.73 in 10.0 mi NW 8.1 mph 20.7 mph N/A   Clear
4:13 PM 51.8 °F - 17.6 °F 26% 29.73 in 10.0 mi WNW 12.7 mph 24.2 mph N/A   Clear
4:33 PM 51.8 °F - 17.6 °F 26% 29.73 in 10.0 mi WNW 11.5 mph 16.1 mph N/A   Clear
4:53 PM 51.8 °F - 19.4 °F 28% 29.72 in 10.0 mi WNW 8.1 mph 17.3 mph N/A   Clear
5:12 PM 51.8 °F - 19.4 °F 28% 29.72 in 10.0 mi West 12.7 mph - N/A   Clear
5:33 PM 51.8 °F - 19.4 °F 28% 29.72 in 10.0 mi West 13.8 mph 18.4 mph N/A   Clear
5:53 PM 50.0 °F - 19.4 °F 30% 29.72 in 10.0 mi WNW 12.7 mph 19.6 mph N/A   Clear
6:12 PM 50.0 °F - 21.2 °F 32% 29.72 in 10.0 mi WNW 9.2 mph 20.7 mph N/A   Clear
6:33 PM 48.2 °F - 19.4 °F 32% 29.72 in 10.0 mi WNW 11.5 mph 19.6 mph N/A   Clear
6:53 PM 48.2 °F - 19.4 °F 32% 29.72 in 10.0 mi WNW 10.4 mph 16.1 mph N/A   Clear
7:12 PM 46.4 °F 43.5 °F 19.4 °F 34% 29.73 in 10.0 mi NW 5.8 mph - N/A   Clear
7:33 PM 44.6 °F 39.7 °F 15.8 °F 31% 29.73 in 10.0 mi NW 9.2 mph - N/A   Clear
7:53 PM 42.8 °F 39.3 °F 12.2 °F 29% 29.73 in 10.0 mi NW 5.8 mph - N/A   Clear
8:12 PM 42.8 °F 39.3 °F 12.2 °F 29% 29.73 in 10.0 mi WNW 5.8 mph - N/A   Clear
8:33 PM 39.2 °F 35.9 °F 12.2 °F 33% 29.74 in 10.0 mi WNW 4.6 mph - N/A   Clear
8:53 PM 39.2 °F 35.0 °F 14.0 °F 36% 29.74 in 10.0 mi WNW 5.8 mph - N/A   Clear
9:12 PM 39.2 °F 35.9 °F 15.8 °F 39% 29.74 in 10.0 mi WNW 4.6 mph - N/A   Clear
9:33 PM 37.4 °F 33.8 °F 15.8 °F 41% 29.74 in 10.0 mi WNW 4.6 mph - N/A   Clear
9:53 PM 37.4 °F 33.8 °F 17.6 °F 45% 29.74 in 10.0 mi West 4.6 mph - N/A   Clear
10:12 PM 35.6 °F 31.7 °F 17.6 °F 48% 29.73 in 10.0 mi West 4.6 mph - N/A   Clear
10:33 PM 35.6 °F 31.7 °F 17.6 °F 48% 29.73 in 10.0 mi West 4.6 mph - N/A   Clear
10:53 PM 33.8 °F 30.8 °F 17.6 °F 52% 29.73 in 10.0 mi West 3.5 mph - N/A   Clear
11:13 PM 33.8 °F 29.6 °F 17.6 °F 52% 29.72 in 10.0 mi WNW 4.6 mph - N/A   Clear
11:33 PM 33.8 °F 28.6 °F 19.4 °F 56% 29.72 in 10.0 mi West 5.8 mph - N/A   Clear
11:52 PM 33.8 °F 28.6 °F 19.4 °F 56% 29.71 in 10.0 mi West 5.8 mph - N/A   Clear